Flag for Spain Weather past 2 weeks in Santander, Spain

Now
70 °F

Scattered clouds.


Feels Like: 70 °F
Forecast: 64 / 72 °F
Wind: 5 mph from North

Location: Santander / Parayas

Current Time: Aug 29, 2014 at 6:24:16 PM

Latest Report: Aug 29, 2014 at 6:00 PM


Visibility: N/A

Pressure: 30.15 "Hg

Humidity: 69%

Dew point: 59 °F

Location of SantanderLocation

Historic Weather in Santander — Graph

°F

Santander temperature yesterday

Maximum temperature yesterday: 70 °F (at 5:30 AM)
Minimum temperature yesterday: 63 °F (at 8:30 PM)
Average temperature yesterday: 67 °F

Past Weeks' High & Low Weather Summary

 TemperatureHumidityPressure
High79 °F (Aug 25, 1:00 PM)100% (Aug 28, 4:30 PM)30.30 "Hg (Aug 28, 4:30 PM)
Low54 °F (Aug 17, 5:30 AM)45% (Aug 25, 1:00 PM)29.89 "Hg (Aug 25, 7:30 PM)
Average67 °F74%30.07 "Hg
* Reported Aug 14 5:00 PM — Aug 29 5:00 PM, Santander, Weather by CustomWeather, © 2014

Note: Actual official high and low records may vary slightly from our data, if they occured in-between our weather recording intervals... More about our weather records

Advertising

Santander weather history for previous 24 hours

 ConditionsComfort  
Time TempWeatherWind HumidityBarometerVisibility
5:00 PM
Aug 29
70 °FPartly sunny.6 mph69%30.15 "HgN/A
4:30 PM70 °FPartly sunny.7 mph69%30.15 "HgN/A
4:00 PM72 °FPartly sunny.6 mph65%30.18 "HgN/A
3:30 PM70 °FPartly sunny.7 mph73%30.18 "HgN/A
3:00 PM70 °FBroken clouds.7 mph73%30.18 "HgN/A
2:30 PM70 °FPartly sunny.7 mph69%30.18 "HgN/A
2:00 PM70 °FPartly sunny.9 mph73%30.18 "HgN/A
1:30 PM70 °FPassing clouds.9 mph73%30.15 "HgN/A
1:00 PM70 °FScattered clouds.10 mph78%30.18 "HgN/A
12:30 PM70 °FScattered clouds.8 mph64%30.18 "HgN/A
12:00 PM70 °FScattered clouds.3 mph64%30.15 "HgN/A
11:30 AM70 °FPassing clouds.2 mph64%30.15 "HgN/A
11:00 AM70 °FPassing clouds.5 mph69%30.15 "HgN/A
10:30 AM70 °FPassing clouds.3 mph69%30.15 "HgN/A
10:00 AM64 °FScattered clouds.5 mph83%30.15 "HgN/A
9:30 AM64 °FScattered clouds.5 mph83%30.15 "HgN/A
9:00 AM64 °FPartly sunny.6 mph83%30.15 "HgN/A
8:30 AM63 °FPassing clouds.6 mph88%30.15 "HgN/A
8:00 AM63 °FPassing clouds.5 mph88%30.12 "HgN/A
7:30 AM63 °FPassing clouds.6 mph83%30.12 "HgN/A
7:00 AM63 °FPassing clouds.6 mph88%30.12 "HgN/A
6:30 AM63 °FPassing clouds.5 mph88%30.12 "HgN/A
6:00 AM63 °FPassing clouds.5 mph88%30.12 "HgN/A
5:30 AM63 °FPassing clouds.2 mph88%30.12 "HgN/A
5:00 AM63 °FOvercast.6 mph88%30.12 "Hg4 mi
4:30 AM63 °FOvercast.6 mph88%30.12 "Hg5 mi
4:00 AM63 °FOvercast.6 mph88%30.12 "Hg5 mi
11:00 PM
Aug 28
63 °FPassing clouds.5 mph94%30.12 "HgN/A
10:30 PM63 °FPartly cloudy.1 mph94%30.15 "Hg6 mi
10:00 PM63 °FPartly cloudy.5 mph94%30.12 "Hg4 mi
9:30 PM63 °FDrizzle. Partly sunny.2 mph94%30.12 "Hg1 mi
9:00 PM63 °FDrizzle. Broken clouds.7 mph94%30.12 "Hg3 mi
8:30 PM63 °FDrizzle. Partly sunny.5 mph100%30.12 "Hg1 mi
8:00 PM64 °FDrizzle. Overcast.3 mph94%30.09 "Hg2 mi
7:30 PM64 °FDrizzle. Overcast.6 mph88%30.09 "Hg3 mi
7:00 PM66 °FPartly sunny.6 mph83%30.09 "HgN/A
6:30 PM66 °FPartly sunny.2 mph88%30.09 "HgN/A
6:00 PM66 °FPartly sunny.8 mph88%30.07 "HgN/A
Weather by CustomWeather, © 2014

See weather overviewHow to use our weather pages